Ord, NE

7:34 AM CST on February 13, 2016 (GMT -0600)
Sharp

Weather History for KODX - January, 2013

Change the Weather History Date:

Thursday, January 10, 2013

  Actual Average Record
Temperature  
Mean Temperature 36 °F 24 °F  
Max Temperature 39 °F 36 °F 61 °F (2012)
Min Temperature 33 °F 12 °F -11 °F (1997)
Degree Days  
Heating Degree Days 29 41  
Month to date heating degree days 410  
Since 1 July heating degree days 3134  
Cooling Degree Days 0 0  
Month to date cooling degree days 0  
Year to date cooling degree days 0  
Moisture  
Dew Point 32 °F    
Average Humidity 88    
Maximum Humidity 100    
Minimum Humidity 60    
Precipitation  
Precipitation 0.02 in 0.01 in 0.50 in (1963)
Month to date precipitation 0.00  
Year to date precipitation 0.00  
Sea Level Pressure  
Sea Level Pressure 29.86 in    
Wind  
Wind Speed 11 mph (South)    
Max Wind Speed 15 mph    
Max Gust Speed 23 mph    
Visibility 6 miles    
Events Rain    
T = Trace of Precipitation, MM = Missing Value Source: NWS Daily Summary

Daily Weather History Graph

Daily Weather History Graph

Search for Another Location

Airport or City:

Trip Planner

Search our weather history database for the weather conditions in past years. The results will help you decide how hot, cold, wet, or windy it might be!

Date:

Astronomy

Jan. 10, 2013 Rise Set
Actual Time 8:01 AM CST 5:25 PM CST
Civil Twilight 7:30 AM CST 5:56 PM CST
Nautical Twilight 6:56 AM CST 6:30 PM CST
Astronomical Twilight 6:23 AM CST 7:04 PM CST
Moon 6:43 AM CST (1/10) 4:35 PM CST (1/10)
Length of Visible Light 10h 25m
Length of Day
9h 23m
Waning Crescent, 2% of the Moon is Illuminated
Jan 10
Waning Crescent
Jan 11
New
Jan 18
First Quarter
Jan 26
Full
Feb 3
Last Quarter

Hourly Weather History & Observations

Time (CST) Temp. Windchill Dew Point Humidity Pressure Visibility Wind Dir Wind Speed Gust Speed Precip Events Conditions
12:53 AM 35.1 °F 25.5 °F 27.0 °F 72% 30.24 in 10.0 mi South 15.0 mph - N/A   Clear
1:53 AM 33.1 °F 23.4 °F 27.0 °F 78% 30.23 in 10.0 mi SSW 13.8 mph - N/A   Clear
2:53 AM 34.0 °F 25.5 °F 27.0 °F 75% 30.21 in 10.0 mi South 11.5 mph - N/A   Clear
3:53 AM 33.8 °F 28.6 °F 26.6 °F 75% 30.15 in 10.0 mi SSE 5.8 mph - N/A   Clear
4:53 AM 34.0 °F 26.0 °F 27.0 °F 75% 30.15 in 10.0 mi South 10.4 mph - N/A   Clear
5:53 AM 37.4 °F 28.9 °F 26.6 °F 65% 30.07 in 10.0 mi South 13.8 mph 23.0 mph N/A   Clear
6:53 AM 37.9 °F 30.9 °F 25.0 °F 60% 30.09 in 10.0 mi South 10.4 mph - N/A   Clear
7:53 AM 36.0 °F 32.1 °F 24.1 °F 62% 30.09 in 10.0 mi SE 4.6 mph - N/A   Clear
8:53 AM 37.0 °F 31.0 °F 25.0 °F 62% 30.06 in 10.0 mi SSE 8.1 mph - N/A   Clear
9:27 AM 37.4 °F 31.4 °F 26.6 °F 65% 29.99 in 10.0 mi SSE 8.1 mph - N/A   Mostly Cloudy
9:53 AM 39.0 °F 33.4 °F 26.1 °F 60% 30.04 in 10.0 mi SSE 8.1 mph - N/A   Overcast
10:53 AM 37.0 °F 28.5 °F 30.9 °F 79% 30.00 in 9.0 mi South 13.8 mph - N/A   Overcast
11:04 AM 35.6 °F 27.1 °F 32.0 °F 87% 29.94 in 5.0 mi SSE 12.7 mph - N/A   Overcast
11:12 AM 35.6 °F 28.0 °F 33.8 °F 93% 29.95 in 2.5 mi SSE 10.4 mph - N/A   Overcast
11:22 AM 35.6 °F 28.0 °F 33.8 °F 93% 29.94 in 1.0 mi SSE 10.4 mph - N/A   Overcast
11:29 AM 35.6 °F 28.6 °F 33.8 °F 93% 29.93 in 1.0 mi SSE 9.2 mph - N/A   Overcast
11:53 AM 36.0 °F 30.3 °F 34.0 °F 93% 29.96 in 1.2 mi SSE 6.9 mph - N/A   Overcast
1:07 PM 35.6 °F 28.6 °F 35.6 °F 100% 29.82 in 1.5 mi South 9.2 mph - N/A   Overcast
1:27 PM 35.6 °F 28.0 °F 33.8 °F 93% 29.80 in 2.5 mi South 10.4 mph - N/A   Overcast
1:36 PM 35.6 °F 29.2 °F 35.6 °F 100% 29.80 in 4.0 mi South 8.1 mph - N/A   Overcast
1:53 PM 36.0 °F 30.3 °F 34.0 °F 93% 29.84 in 7.0 mi SSE 6.9 mph - N/A   Overcast
2:53 PM 36.0 °F 28.5 °F 35.1 °F 97% 29.77 in 8.0 mi SSE 10.4 mph - 0.01 in Rain Light Rain
3:53 PM 36.0 °F 28.5 °F 34.0 °F 93% 29.78 in 10.0 mi SSE 10.4 mph - 0.00 in   Overcast
4:53 PM 35.1 °F 26.9 °F 33.1 °F 92% 29.77 in 10.0 mi South 11.5 mph - 0.01 in Rain Light Rain
5:22 PM 35.6 °F 28.0 °F 33.8 °F 93% 29.72 in 5.0 mi South 10.4 mph - 0.00 in   Overcast
5:42 PM 33.8 °F 26.4 °F 33.8 °F 100% 29.70 in 2.0 mi SSE 9.2 mph - 0.00 in   Overcast
5:53 PM 35.1 °F 26.4 °F 34.0 °F 96% 29.75 in 2.0 mi SSE 12.7 mph 16.1 mph 0.00 in   Overcast
6:06 PM 35.6 °F 28.0 °F 33.8 °F 93% 29.70 in 1.5 mi SSE 10.4 mph - N/A   Overcast
6:40 PM 35.6 °F 27.5 °F 33.8 °F 93% 29.70 in 2.5 mi South 11.5 mph - N/A   Overcast
6:53 PM 34.0 °F 26.6 °F 34.0 °F 100% 29.74 in 1.5 mi South 9.2 mph - N/A   Overcast
7:28 PM 33.8 °F 26.4 °F 33.8 °F 100% 29.66 in 2.5 mi South 9.2 mph - N/A   Overcast
7:41 PM 33.8 °F 26.4 °F 33.8 °F 100% 29.65 in 1.5 mi South 9.2 mph - N/A   Overcast
7:53 PM 34.0 °F 26.0 °F 34.0 °F 100% 29.70 in 1.2 mi South 10.4 mph - N/A   Overcast
8:10 PM 33.8 °F 25.8 °F 33.8 °F 100% 29.66 in 1.0 mi South 10.4 mph - N/A   Overcast
8:26 PM 33.8 °F 25.3 °F 33.8 °F 100% 29.65 in 1.5 mi South 11.5 mph - N/A   Overcast
8:36 PM 33.8 °F 25.3 °F 33.8 °F 100% 29.65 in 2.5 mi South 11.5 mph - N/A   Overcast
8:53 PM 34.0 °F 25.5 °F 34.0 °F 100% 29.70 in 1.8 mi South 11.5 mph - N/A   Overcast
9:20 PM 33.8 °F 25.3 °F 33.8 °F 100% 29.64 in 3.0 mi South 11.5 mph - N/A   Overcast
9:53 PM 34.0 °F 25.0 °F 33.1 °F 96% 29.67 in 9.0 mi South 12.7 mph - N/A   Overcast
10:53 PM 35.1 °F 26.9 °F 34.0 °F 96% 29.64 in 10.0 mi South 11.5 mph - N/A   Overcast
11:53 PM 36.0 °F 28.0 °F 35.1 °F 97% 29.62 in 7.0 mi South 11.5 mph - N/A   Overcast